Time,TemperatureF,DewpointF,PressureIn,WindDirection,WindDirectionDegrees,WindSpeedMPH,WindSpeedGustMPH,Humidity,HourlyPrecipIn,Conditions,Clouds,dailyrainin,SoftwareType,DateUTC
2013-03-19 00:00:00,29.0,-99.9,-100.00,North,-999,-999.0,-999.0,-999,-99.99,,,0.00,,2013-03-19 06:00:00,
2013-03-19 01:00:00,29.0,-99.9,-100.00,North,0,0.0,0.0,-999,-99.99,,,0.00,,2013-03-19 07:00:00,
2013-03-19 01:53:00,29.0,-99.9,-100.00,North,-999,-999.0,-999.0,-999,-99.99,,,0.00,,2013-03-19 07:53:00,
2013-03-19 02:00:00,27.0,-99.9,-100.00,North,-999,-999.0,-999.0,-999,-99.99,,,0.00,,2013-03-19 08:00:00,
2013-03-19 02:53:00,27.0,-99.9,-100.00,North,-999,-999.0,-999.0,-999,-99.99,,,0.00,,2013-03-19 08:53:00,
2013-03-19 03:00:00,28.0,-99.9,-100.00,North,0,0.0,0.0,-999,-99.99,,,0.00,,2013-03-19 09:00:00,
2013-03-19 04:00:00,28.0,-99.9,-100.00,North,0,0.0,0.0,-999,-99.99,,,0.00,,2013-03-19 10:00:00,
2013-03-19 05:00:00,27.0,-99.9,-100.00,North,0,0.0,0.0,-999,-99.99,,,0.00,,2013-03-19 11:00:00,
2013-03-19 06:00:00,26.0,-99.9,-100.00,North,0,0.0,0.0,-999,-99.99,,,0.00,,2013-03-19 12:00:00,
2013-03-19 07:00:00,23.0,-99.9,-100.00,North,0,0.0,0.0,-999,-99.99,,,0.00,,2013-03-19 13:00:00,
2013-03-19 08:00:00,21.0,-99.9,-100.00,North,360,0.0,0.0,-999,-99.99,,,0.00,,2013-03-19 14:00:00,
2013-03-19 09:00:00,27.0,-99.9,-100.00,North,-999,-999.0,-999.0,-999,-99.99,,,0.00,,2013-03-19 15:00:00,
2013-03-19 10:00:00,29.0,-99.9,-100.00,North,0,0.0,0.0,-999,-99.99,,,0.00,,2013-03-19 16:00:00,
2013-03-19 11:00:00,33.0,-99.9,-100.00,North,0,0.0,0.0,-999,-99.99,,,0.00,,2013-03-19 17:00:00,
2013-03-19 12:00:00,35.0,-99.9,-100.00,North,0,2.0,11.0,-999,-99.99,,,0.01,,2013-03-19 18:00:00,
2013-03-19 13:00:00,37.0,-99.9,-100.00,North,0,5.0,13.0,-999,-99.99,,,0.00,,2013-03-19 19:00:00,
2013-03-19 14:00:00,37.0,-99.9,-100.00,North,0,6.0,17.0,-999,-99.99,,,0.00,,2013-03-19 20:00:00,
2013-03-19 14:53:00,37.0,-99.9,-100.00,North,0,6.0,17.0,-999,-99.99,,,0.00,,2013-03-19 20:53:00,
2013-03-19 15:00:00,38.0,-99.9,-100.00,North,0,6.0,18.0,-999,-99.99,,,0.00,,2013-03-19 21:00:00,
2013-03-19 16:00:00,38.0,-99.9,-100.00,North,0,6.0,16.0,-999,-99.99,,,0.00,,2013-03-19 22:00:00,
2013-03-19 16:44:00,38.0,-99.9,-100.00,North,0,6.0,16.0,-999,-99.99,,,0.00,,2013-03-19 22:44:00,
2013-03-19 16:54:00,38.0,-99.9,-100.00,North,0,6.0,16.0,-999,-99.99,,,0.00,,2013-03-19 22:54:00,
2013-03-19 17:00:00,34.0,-99.9,-100.00,North,0,3.0,13.0,-999,-99.99,,,0.00,,2013-03-19 23:00:00,
2013-03-19 17:43:00,34.0,-99.9,-100.00,North,0,3.0,13.0,-999,-99.99,,,0.00,,2013-03-19 23:43:00,
2013-03-19 17:53:00,34.0,-99.9,-100.00,North,0,3.0,13.0,-999,-99.99,,,0.00,,2013-03-19 23:53:00,
2013-03-19 18:00:00,32.0,-99.9,-100.00,North,-999,-999.0,-999.0,-999,-99.99,,,0.00,,2013-03-20 00:00:00,
2013-03-19 18:43:00,32.0,-99.9,-100.00,North,-999,-999.0,-999.0,-999,-99.99,,,0.00,,2013-03-20 00:43:00,
2013-03-19 18:53:00,32.0,-99.9,-100.00,North,-999,-999.0,-999.0,-999,-99.99,,,0.00,,2013-03-20 00:53:00,
2013-03-19 19:00:00,29.0,-99.9,-100.00,North,0,0.0,0.0,-999,-99.99,,,0.00,,2013-03-20 01:00:00,
2013-03-19 19:43:00,29.0,-99.9,-100.00,North,0,0.0,0.0,-999,-99.99,,,0.00,,2013-03-20 01:43:00,
2013-03-19 19:53:00,29.0,-99.9,-100.00,North,0,0.0,0.0,-999,-99.99,,,0.00,,2013-03-20 01:53:00,
2013-03-19 20:00:00,22.0,-99.9,-100.00,North,-999,-999.0,-999.0,-999,-99.99,,,0.00,,2013-03-20 02:00:00,
2013-03-19 21:00:00,20.0,-99.9,-100.00,North,-999,-999.0,-999.0,-999,-99.99,,,-99.99,,2013-03-20 03:00:00,
2013-03-19 22:00:00,17.0,-99.9,-100.00,North,-999,-999.0,-999.0,-999,-99.99,,,-99.99,,2013-03-20 04:00:00,
2013-03-19 23:00:00,13.0,-99.9,-100.00,North,360,0.0,0.0,-999,-99.99,,,-99.99,,2013-03-20 05:00:00,